EHI
0 3 6 8 8 7 6 5 4 5 5 3 1 0 0 0 0 0 0 0 0 0 0 0 0 0 0 0 0 0 0 0 0 0 0 0 0 0 0 0 0 0 0
1 4 8 10 9 7 6 5 4 5 5 3 1 0 0 0 0 0 0 0 1 1 1 1 1 0 0 0 0 0 0 0 0 0 0 0 0 0 0 0 0 0 0
2 4 7 10 9 8 7 6 5 4 4 3 2 1 0 0 0 0 0 0 1 2 2 2 2 1 0 0 0 0 0 0 0 0 0 0 0 0 0 0 0 0 0
3 4 6 9 10 9 7 6 5 4 4 3 2 1 0 0 0 0 0 0 1 1 2 2 2 1 0 0 0 0 0 0 0 0 0 0 0 0 0 0 0 0 0
2 4 6 9 11 10 9 7 5 4 4 4 2 1 0 0 0 0 0 0 0 0 1 1 1 0 0 0 0 0 0 0 0 0 0 0 0 0 0 0 0 0 0
1 3 6 10 11 10 9 8 5 3 3 2 1 1 0 0 0 0 0 0 0 0 0 0 1 1 0 0 0 0 0 0 0 0 0 0 0 0 0 0 0 0 0
0 2 5 9 10 10 10 9 6 4 3 1 0 0 0 0 0 0 1 0 0 0 0 0 1 1 0 0 0 0 0 0 0 0 0 0 0 0 0 0 0 0 0
0 0 3 7 9 9 9 8 7 6 4 1 0 0 0 0 0 0 0 0 0 0 0 0 1 1 0 0 0 0 0 0 0 0 0 0 0 0 0 0 0 0 0
0 0 1 4 7 7 6 7 8 7 5 2 1 0 0 0 0 0 0 0 0 0 0 0 0 0 0 0 0 0 0 0 0 0 0 0 0 0 0 0 0 0 0
0 0 0 1 3 3 3 4 6 6 4 2 1 0 0 0 0 0 0 0 0 0 0 0 0 0 0 0 0 0 0 0 0 0 0 0 0 0 0 0 0 0 0
0 0 0 0 1 1 1 2 3 3 2 1 0 0 0 0 0 0 0 0 0 0 0 0 0 0 0 0 0 0 0 0 0 0 0 0 0 0 0 0 0 0 0
0 0 0 0 0 0 0 0 1 1 0 0 0 0 0 0 0 0 0 0 0 0 0 0 0 0 0 0 0 0 0 0 0 0 0 0 0 0 0 0 0 0 0
0 0 0 0 0 0 0 0 0 0 0 0 0 0 0 0 0 0 0 0 0 0 0 0 0 0 0 0 0 0 0 0 0 0 0 0 0 0 0 0 0 0 0
1 0 1 1 1 0 0 0 0 0 0 0 0 0 0 0 0 0 0 0 0 0 0 0 0 0 0 0 0 0 0 0 0 0 0 0 0 0 0 0 0 0 0
2 1 1 2 2 2 2 1 0 0 0 0 0 0 0 0 0 0 0 0 0 0 0 0 0 0 0 0 0 0 0 0 0 0 0 0 0 0 0 0 0 0 0
2 2 2 3 3 3 3 2 1 0 0 0 0 0 0 0 0 0 0 0 0 0 0 0 0 0 0 0 0 0 0 0 0 0 0 0 0 0 0 0 0 0 0
3 3 3 3 3 3 3 3 2 1 0 0 0 0 0 0 0 0 0 0 0 0 0 0 0 0 0 0 0 0 0 0 0 0 0 0 0 0 0 0 0 0 0
3 3 3 3 3 3 3 3 2 1 0 0 0 0 0 0 0 0 0 0 0 0 0 0 0 0 0 0 0 0 0 0 0 0 0 0 0 0 0 0 0 0 0
1 2 2 2 3 3 3 3 2 1 0 0 0 0 0 0 0 0 0 0 0 0 0 0 0 0 0 0 0 0 0 0 0 0 0 0 0 0 0 0 0 0 0
0 1 1 1 1 2 3 3 2 1 0 0 0 0 0 0 0 0 0 0 0 0 0 0 0 0 0 0 0 0 0 0 0 0 0 0 0 0 0 0 0 0 0
0 0 0 0 0 1 2 2 2 1 0 0 0 0 0 0 0 0 0 0 0 0 0 0 0 0 0 0 0 0 0 0 0 0 0 0 0 0 0 0 0 0 0
0 0 0 0 0 0 1 1 1 0 0 0 0 0 0 0 0 0 0 0 0 0 0 0 0 0 0 0 0 0 0 0 0 0 0 0 0 0 0 0 0 0 0
0 0 0 0 0 0 0 0 0 0 0 0 0 0 0 0 0 0 0 0 0 0 0 0 0 0 0 0 0 0 0 0 0 0 0 0 0 0 0 0 0 0 0
0 0 0 0 0 0 0 0 0 0 0 0 0 0 0 0 0 0 0 0 0 0 0 0 0 0 0 0 0 0 0 0 0 0 0 0 0 0 0 0 0 0 0
0 0 0 0 0 0 0 0 0 0 0 0 0 0 0 0 0 0 0 0 0 0 0 0 0 0 0 0 0 0 0 0 0 0 0 0 0 0 0 0 0 0 0
0 0 0 0 0 0 0 0 0 0 0 0 0 0 0 0 0 0 0 0 0 0 0 0 0 0 0 0 0 0 0 0 0 0 0 0 0 0 0 0 0 0 0
Wind_Speed
1 2 3 5 7 8 9 10 11 11 11 12 12 12 13 13 13 13 13 14 14 14 15 16 16 16 16 17 17 17 17 16 16 16 16 15 16 16 16 15 13 10 16
3 2 3 5 7 8 9 10 11 11 11 11 12 12 12 12 12 13 13 13 13 14 15 15 15 15 16 16 16 16 16 15 15 15 14 12 13 15 15 15 14 10 16
4 2 3 5 7 8 10 10 11 11 11 11 11 12 12 12 12 12 13 13 13 14 14 14 14 15 15 15 15 15 15 15 15 14 12 7 9 15 15 15 14 15 15
5 3 3 6 8 9 9 10 10 11 11 11 11 12 12 13 13 12 12 13 13 13 13 14 14 13 14 13 14 14 14 14 14 12 7 6 6 14 15 15 15 15 15
4 3 3 7 9 9 9 9 10 10 11 11 11 11 12 13 13 12 12 12 12 12 13 13 13 13 13 13 14 14 14 13 13 10 6 5 5 13 15 15 15 15 15
5 3 3 8 9 9 9 10 10 10 10 11 11 11 12 13 13 12 12 11 12 12 12 12 12 12 12 12 13 13 13 13 10 6 5 5 5 12 15 15 14 14 14
5 4 4 7 8 9 9 9 10 10 10 10 10 11 12 12 12 12 11 11 11 11 12 12 12 12 12 12 13 13 12 12 7 5 5 5 6 13 14 14 14 14 13
6 5 4 7 8 8 9 9 10 10 10 10 10 11 11 11 12 11 11 11 11 11 11 11 11 11 11 11 12 12 11 10 7 6 5 4 8 12 13 13 13 13 12
6 5 4 4 5 7 8 9 9 9 9 10 10 9 10 10 11 11 10 10 11 11 11 11 11 11 11 11 11 12 12 11 6 4 5 4 9 11 12 12 12 12 12
5 5 4 4 5 4 4 7 9 9 10 10 10 10 10 9 9 10 9 10 10 10 10 10 10 10 10 11 11 12 11 9 5 4 3 5 10 11 11 11 11 11 11
5 4 4 4 5 4 4 6 6 8 9 9 8 10 8 5 5 5 7 9 9 10 10 10 10 10 10 10 11 11 8 4 4 3 3 7 10 10 11 11 10 10 10
5 4 3 4 4 4 4 4 4 4 5 5 4 5 4 3 4 5 8 9 9 9 9 9 10 9 7 4 6 8 4 4 4 3 3 8 9 10 10 10 10 9 10
5 4 3 4 4 4 3 3 2 2 3 3 4 4 4 3 3 3 3 4 5 6 4 5 5 4 4 3 3 3 4 4 2 2 3 8 8 9 10 10 10 10 9
5 4 3 4 4 4 3 3 2 2 2 2 3 3 3 2 3 2 2 2 3 2 3 3 2 3 4 4 4 4 4 3 2 2 3 7 8 8 9 9 9 9 9
5 4 4 4 4 4 3 2 2 2 2 2 2 3 3 2 2 2 2 2 2 2 2 2 3 3 3 3 3 4 4 3 3 3 2 7 7 7 8 8 8 8 8
5 5 4 5 4 4 3 3 2 2 2 2 2 2 3 3 2 2 2 2 2 2 1 2 2 2 2 2 3 3 3 3 3 3 3 4 6 6 7 7 7 7 7
5 4 4 5 4 4 4 3 2 2 2 2 2 2 3 3 2 2 2 2 1 1 2 2 3 3 3 3 3 3 2 2 3 3 3 2 2 5 6 6 6 6 6
5 5 4 4 4 4 3 3 2 2 2 2 2 2 3 3 3 2 2 1 1 1 2 2 2 2 2 2 2 1 2 2 2 2 2 2 2 2 4 5 5 5 5
4 5 4 3 4 3 3 2 2 2 2 1 1 2 2 2 3 2 1 1 1 2 2 2 2 2 2 2 1 1 1 1 1 2 2 2 2 2 2 4 5 5 4
4 4 3 3 3 3 2 2 2 2 1 1 1 1 2 2 2 2 1 1 2 2 2 2 2 2 2 2 2 2 1 1 1 1 1 1 2 2 2 2 2 3 4
3 3 3 3 2 2 2 2 1 1 1 0 0 1 1 1 2 2 1 1 1 1 2 2 2 2 2 2 2 2 2 2 1 1 1 1 1 2 2 2 2 2 2
3 2 2 2 2 2 1 1 1 1 1 1 0 0 0 1 1 2 2 1 1 1 2 2 2 2 1 1 2 2 1 1 2 1 1 1 1 1 1 1 1 1 1
2 2 2 1 2 1 1 1 2 2 1 1 1 1 1 0 1 1 1 1 1 1 1 2 3 3 3 1 1 3 3 2 1 2 1 0 0 1 0 1 1 1 0
1 1 1 1 1 1 2 2 2 2 2 2 1 1 1 1 1 1 1 1 2 2 1 2 1 1 4 3 1 0 1 3 3 1 2 1 1 1 1 1 1 1 1
1 1 1 2 2 1 1 1 1 1 1 1 1 1 1 1 1 1 1 1 2 2 2 2 2 1 2 3 2 1 1 1 1 3 2 2 2 2 1 2 2 1 1
2 2 1 1 1 1 0 0 1 1 1 1 1 2 2 1 1 2 2 2 2 2 3 3 3 3 3 2 2 2 2 2 2 2 2 2 2 2 2 2 2 2 2
Wind_Direction
219 249 182 131 115 107 100 98 96 96 96 95 95 96 95 94 94 93 93 92 89 87 85 83 82 82 82 81 80 78 75 72 72 72 72 75 79 82 81 79 76 73 79
167 185 147 127 116 110 104 100 97 96 96 96 94 95 96 96 95 95 94 93 92 88 86 84 83 82 82 81 81 80 76 73 73 72 68 67 75 80 82 80 80 81 81
132 132 128 113 114 112 108 103 100 97 95 96 95 95 96 96 95 95 94 93 91 89 87 86 84 83 82 81 80 79 77 76 75 73 68 58 73 81 81 80 81 82 83
121 113 124 110 107 108 107 105 104 100 95 96 97 96 97 95 92 91 92 92 89 88 88 86 85 82 80 80 80 79 78 77 74 72 61 55 67 82 81 80 80 80 81
97 87 104 107 108 105 103 104 106 106 104 101 97 96 97 96 94 90 90 91 90 89 90 89 85 81 79 79 79 79 81 78 74 65 59 56 64 84 83 81 80 79 78
91 83 105 104 103 102 102 102 102 105 106 104 100 98 97 96 95 92 91 91 91 90 90 89 86 82 80 80 79 80 82 77 68 54 56 56 64 84 85 83 81 80 78
90 79 97 102 101 100 97 94 97 96 99 101 100 100 99 97 96 95 93 91 90 90 91 90 88 84 81 84 82 81 81 78 69 56 54 54 71 86 87 86 84 82 80
96 82 82 90 89 91 94 91 89 92 93 93 97 99 98 99 98 96 95 94 94 93 93 93 91 87 84 84 83 81 78 77 72 66 58 56 77 88 90 87 85 84 83
93 85 74 71 75 78 82 85 88 87 88 88 86 92 95 95 97 95 93 92 93 94 93 95 93 89 87 83 83 83 78 73 65 60 64 60 78 85 87 90 88 85 84
90 82 76 69 65 62 69 81 83 84 81 78 76 74 81 85 88 88 86 90 92 93 93 93 93 90 86 84 81 80 74 68 57 53 52 66 78 83 83 84 88 88 86
93 82 77 75 68 62 62 73 75 78 76 73 71 70 71 70 71 73 79 85 88 89 90 91 88 85 83 80 77 74 68 56 57 49 54 71 81 85 84 83 84 88 89
126 108 88 85 81 70 67 63 58 63 66 61 59 58 54 68 70 73 75 76 77 75 76 78 77 75 72 64 69 70 62 56 54 42 59 74 84 86 86 86 85 85 86
139 123 106 101 92 84 79 74 58 57 58 60 57 57 57 63 69 66 69 64 63 63 55 57 59 55 62 67 69 70 69 65 52 36 54 76 86 90 89 87 85 85 85
134 131 118 108 101 91 89 85 77 72 64 58 53 61 68 70 71 76 78 70 62 59 60 56 61 59 65 68 74 77 73 69 58 41 49 70 80 87 89 87 84 82 83
142 142 140 125 116 110 105 99 88 82 77 66 56 52 66 81 91 85 82 79 72 65 71 69 67 69 72 72 73 79 78 73 68 56 45 64 74 81 87 89 86 81 79
153 151 148 139 127 118 108 104 101 87 86 78 67 59 64 75 87 94 89 85 84 82 83 87 81 81 79 77 74 74 78 78 74 66 53 56 66 76 83 90 89 85 82
156 146 148 143 129 124 116 111 110 105 94 89 84 73 68 71 72 90 99 94 91 95 91 86 74 74 77 72 68 66 74 75 80 74 64 54 49 59 72 86 88 84 82
145 143 144 140 131 125 119 116 114 111 103 95 91 85 79 76 76 77 94 96 85 92 99 102 93 88 81 79 74 59 64 74 79 79 77 66 54 45 50 65 77 78 80
147 146 145 131 138 137 124 113 113 110 102 98 92 85 84 80 80 78 93 82 96 95 95 109 92 106 107 88 86 68 63 76 82 81 85 83 71 58 46 45 52 59 70
117 120 131 130 135 135 121 105 94 84 80 80 106 96 97 98 89 79 96 80 89 104 98 106 110 85 111 116 95 60 40 57 82 93 103 94 87 73 58 43 40 29 45
95 101 111 116 127 129 134 141 140 162 157 95 55 77 105 114 111 100 101 104 87 121 137 134 129 112 81 86 86 58 18 29 60 75 97 100 89 81 72 65 65 38 13
111 108 111 118 129 128 144 163 156 155 178 188 100 60 78 116 123 118 112 127 117 104 128 134 128 128 120 110 117 118 68 350 349 360 32 116 127 96 91 88 86 64 44
107 126 123 105 119 121 98 94 85 62 42 41 355 299 299 141 130 124 127 124 143 140 174 172 160 147 161 192 142 139 150 197 263 309 331 356 158 134 163 188 134 125 102
144 131 117 116 97 88 109 123 145 171 196 221 215 235 264 228 177 160 160 157 167 168 183 202 182 168 163 178 204 86 158 153 162 239 296 300 279 216 221 250 225 215 214
101 107 113 103 76 67 102 146 171 225 225 217 207 215 233 241 229 218 196 188 195 191 193 193 200 207 180 185 182 167 123 75 153 165 223 266 292 270 250 247 237 231 236
55 60 61 74 44 42 58 173 196 234 239 213 224 223 235 249 243 237 232 217 216 212 208 208 204 210 212 205 200 189 178 174 185 172 192 221 252 266 268 250 235 230 232